Location: ????????
(54.8751°N, 38.5756°E)
Time: 05:27:58
(UTC+00:00)

SWAS - Visible Passes

Search period start: 16 July 2024 00:00
Search period end: 26 July 2024 00:00
Orbit: 558 x 571 km, 69.9° (Epoch: 15 July)

Date Brightness Start Highest point End Pass type
(mag) Time Alt. Az. Time Alt. Az. Time Alt. Az.
16 Jul 6.7 19:55:08 10° W 19:58:49 28° NW 20:02:32 10° NNE visible
16 Jul 7.8 21:36:32 10° NW 21:38:21 12° NNW 21:40:11 10° N visible
16 Jul 8.0 23:16:53 10° N 23:18:23 12° N 23:19:53 10° NNE visible
17 Jul 7.0 19:55:34 10° W 19:59:03 24° NW 20:02:33 10° NNE visible
17 Jul 7.9 21:37:11 10° NNW 21:38:42 12° N 21:40:13 10° N visible
17 Jul 7.9 23:16:57 10° N 23:18:44 12° NNE 23:20:32 10° NE visible
18 Jul 7.3 19:56:02 10° W 19:59:18 21° NNW 20:02:33 10° NNE visible
18 Jul 8.1 21:37:47 10° NNW 21:39:02 11° N 21:40:18 10° N visible
18 Jul 7.9 23:16:58 10° NNW 23:19:04 13° NNE 23:21:10 10° NE visible
19 Jul 7.6 19:56:33 10° WNW 19:59:33 18° NNW 20:02:33 10° NNE visible
19 Jul 8.2 21:38:20 10° NNW 21:39:23 11° N 21:40:27 10° N visible
19 Jul 7.9 23:16:58 10° NNW 23:19:23 15° NNE 23:21:46 10° ENE visible
20 Jul 7.8 19:57:06 10° WNW 19:59:49 16° NNW 20:02:33 10° NNE visible
20 Jul 8.3 21:38:46 10° NNW 21:39:44 11° N 21:40:42 10° NNE visible
20 Jul 7.8 23:16:57 10° NNW 23:19:39 16° NNE 23:22:21 10° ENE visible
21 Jul 7.9 19:57:40 10° WNW 20:00:05 15° NNW 20:02:31 10° NNE visible
21 Jul 8.3 21:39:02 10° N 21:40:04 11° N 21:41:06 10° NNE visible
21 Jul 7.7 23:16:56 10° NNW 23:19:55 18° NNE 23:22:53 10° ENE visible
22 Jul 8.0 19:58:16 10° NW 20:00:23 13° NNW 20:02:30 10° NNE visible
22 Jul 8.2 21:39:10 10° N 21:40:23 11° N 21:41:37 10° NNE visible
22 Jul 7.4 23:16:54 10° NNW 23:20:09 21° NNE 23:23:22 10° E visible
23 Jul 8.0 19:58:52 10° NW 20:00:40 12° NNW 20:02:29 10° N visible
23 Jul 8.0 21:39:13 10° N 21:40:42 12° N 21:42:12 10° NNE visible
23 Jul 7.1 23:16:52 10° NNW 23:20:21 24° NE 23:23:49 10° E visible
24 Jul 8.0 19:59:27 10° NNW 20:00:57 12° N 20:02:29 10° N visible
24 Jul 7.8 21:39:13 10° N 21:41:00 12° NNE 21:42:47 10° NE visible
24 Jul 6.7 23:16:51 10° NNW 23:20:32 28° NE 23:24:11 10° E visible
25 Jul 8.0 20:00:01 10° NNW 20:01:16 11° N 20:02:30 10° N visible
25 Jul 7.7 21:39:11 10° NNW 21:41:16 13° NNE 21:43:22 10° NE visible
25 Jul 6.3 23:16:49 10° NNW 23:20:41 34° NE 23:24:31 10° ESE visible
